Eugene, OR

8:47 AM PDT on August 22, 2017 (GMT -0700)
Mahlon Sweet

Weather History for KEUG - June, 2013

Change the Weather History Date:

Wednesday, June 12, 2013

  Actual Average Record
Temperature  
Mean Temperature 54 °F 60 °F  
Max Temperature 65 °F 72 °F 89 °F (1974)
Min Temperature 43 °F 47 °F 34 °F (2008)
Degree Days  
Heating Degree Days 11 6  
Month to date heating degree days 40 80  
Since 1 June heating degree days 40 80  
Since 1 July heating degree days 4301 4729  
Cooling Degree Days 0 0  
Month to date cooling degree days 8 0  
Year to date cooling degree days 13 5  
Since 1 June cooling degree days 8 0  
Growing Degree Days 4 (Base 50)    
Moisture  
Dew Point 44 °F    
Average Humidity 72    
Maximum Humidity 100    
Minimum Humidity 44    
Precipitation  
Precipitation 0.00 in 0.06 in 0.84 in (1912)
Month to date precipitation 0.00 0.81  
Year to date precipitation 8.57 24.17  
Snow  
Snow 0.00 in - - ()
Month to date snowfall 0.0  
Since 1 June snowfall 0.0  
Since 1 July snowfall 0.0  
Snow Depth 0.00 in    
Sea Level Pressure  
Sea Level Pressure 30.19 in    
Wind  
Wind Speed 4 mph (WNW)    
Max Wind Speed 12 mph    
Max Gust Speed 23 mph    
Visibility 10 miles    
Events Fog    
T = Trace of Precipitation, MM = Missing Value Source: NWS Daily Summary

Daily Weather History Graph

Daily Weather History Graph

Search for Another Location

Airport or City:

Trip Planner

Search our weather history database for the weather conditions in past years. The results will help you decide how hot, cold, wet, or windy it might be!

Date:

Astronomy

Jun. 12, 2013 Rise Set
Actual Time 5:29 AM PDT 8:56 PM PDT
Civil Twilight 4:52 AM PDT 9:33 PM PDT
Nautical Twilight 4:05 AM PDT 10:20 PM PDT
Astronomical Twilight 3:04 AM PDT 11:21 PM PDT
Moon 9:20 AM PDT (6/12) 11:27 PM PDT (6/12)
Length of Visible Light 16h 40m
Length of Day
15h 27m
Waxing Crescent, 15% of the Moon is Illuminated
Jun 12
Waxing Crescent
Jun 16
First Quarter
Jun 23
Full
Jun 29
Last Quarter
Jul 8
New

Hourly Weather History & Observations

Time (PDT) Temp. Dew Point Humidity Pressure Visibility Wind Dir Wind Speed Gust Speed Precip Events Conditions
12:54 AM 52.0 °F 45.0 °F 77% 30.17 in 10.0 mi NNW 3.5 mph - N/A   Overcast
1:54 AM 48.9 °F 44.1 °F 83% 30.17 in 10.0 mi NW 3.5 mph - N/A   Overcast
2:54 AM 46.0 °F 43.0 °F 89% 30.17 in 10.0 mi Calm Calm - N/A   Overcast
3:54 AM 45.0 °F 42.1 °F 90% 30.16 in 10.0 mi Calm Calm - N/A   Mostly Cloudy
4:54 AM 43.0 °F 42.1 °F 97% 30.17 in 7.0 mi Calm Calm - N/A   Clear
5:54 AM 45.0 °F 42.1 °F 90% 30.18 in 10.0 mi Calm Calm - N/A Fog Shallow Fog
6:54 AM 46.9 °F 45.0 °F 93% 30.19 in 10.0 mi Calm Calm - N/A   Mostly Cloudy
7:54 AM 53.1 °F 48.0 °F 83% 30.19 in 10.0 mi Calm Calm - N/A   Mostly Cloudy
8:47 AM 55.4 °F 46.4 °F 72% 30.19 in 10.0 mi Calm Calm - N/A   Mostly Cloudy
8:54 AM 55.0 °F 46.0 °F 72% 30.19 in 10.0 mi Calm Calm - N/A   Mostly Cloudy
9:14 AM 57.2 °F 46.4 °F 67% 30.19 in 10.0 mi East 4.6 mph - N/A   Mostly Cloudy
9:54 AM 57.0 °F 46.0 °F 67% 30.19 in 10.0 mi Calm Calm - N/A   Mostly Cloudy
10:18 AM 57.2 °F 46.4 °F 67% 30.19 in 10.0 mi ESE 3.5 mph - N/A   Mostly Cloudy
10:54 AM 59.0 °F 44.1 °F 58% 30.19 in 10.0 mi North 3.5 mph - N/A   Overcast
11:14 AM 60.8 °F 44.6 °F 55% 30.19 in 10.0 mi Variable 3.5 mph - N/A   Mostly Cloudy
11:54 AM 60.1 °F 44.1 °F 55% 30.19 in 10.0 mi WNW 4.6 mph - N/A   Mostly Cloudy
12:54 PM 62.1 °F 42.1 °F 48% 30.19 in 10.0 mi Variable 4.6 mph - N/A   Overcast
1:54 PM 64.0 °F 42.1 °F 45% 30.19 in 10.0 mi WSW 9.2 mph - N/A   Mostly Cloudy
2:54 PM 64.9 °F 44.1 °F 47% 30.19 in 10.0 mi NW 10.4 mph - N/A   Mostly Cloudy
3:54 PM 64.0 °F 44.1 °F 48% 30.18 in 10.0 mi NNW 5.8 mph - N/A   Mostly Cloudy
4:54 PM 63.0 °F 45.0 °F 52% 30.19 in 10.0 mi WNW 8.1 mph - N/A   Mostly Cloudy
5:54 PM 63.0 °F 45.0 °F 52% 30.18 in 10.0 mi NW 9.2 mph - N/A   Mostly Cloudy
6:54 PM 62.1 °F 45.0 °F 53% 30.18 in 10.0 mi WNW 11.5 mph - N/A   Mostly Cloudy
7:54 PM 61.0 °F 44.1 °F 54% 30.19 in 10.0 mi WNW 12.7 mph - N/A   Mostly Cloudy
8:54 PM 57.0 °F 45.0 °F 64% 30.20 in 10.0 mi WNW 12.7 mph - N/A   Mostly Cloudy
9:54 PM 55.0 °F 45.0 °F 69% 30.22 in 10.0 mi WNW 5.8 mph - N/A   Mostly Cloudy
10:54 PM 54.0 °F 45.0 °F 72% 30.22 in 10.0 mi West 5.8 mph - N/A   Mostly Cloudy
11:54 PM 50.0 °F 44.1 °F 80% 30.22 in 10.0 mi WSW 4.6 mph - N/A   Clear